Weather History for PAKT - March, 2014

Change the Weather History Date:

Friday, March 21, 2014

  Actual Average Record
Temperature  
Mean Temperature 38 °F -  
Max Temperature 43 °F 44 °F 61 °F (1998)
Min Temperature 33 °F 33 °F 19 °F (2001)
Degree Days  
Heating Degree Days 27    
Moisture  
Dew Point 31 °F    
Average Humidity 82    
Maximum Humidity 100    
Minimum Humidity 51    
Precipitation  
Precipitation 0.02 in - - ()
Sea Level Pressure  
Sea Level Pressure 30.30 in    
Wind  
Wind Speed 4 mph (SSE)    
Max Wind Speed 18 mph    
Max Gust Speed 26 mph    
Visibility 10 miles    
Events Rain    
Averages and records for this station are not official NWS values.
T = Trace of Precipitation, MM = Missing Value Source: NWS Daily Summary

Daily Weather History Graph

Daily Weather History Graph

Search for Another Location

Airport or City:

Trip Planner

Search our weather history database for the weather conditions in past years. The results will help you decide how hot, cold, wet, or windy it might be!

Date:

Astronomy

Mar. 21, 2014 Rise Set
Actual Time 6:46 AM AKDT 7:02 PM AKDT
Civil Twilight 6:09 AM AKDT 7:39 PM AKDT
Nautical Twilight 5:26 AM AKDT 8:23 PM AKDT
Astronomical Twilight 4:40 AM AKDT 9:09 PM AKDT
Moon 12:13 AM AKDT (3/21) 8:56 AM AKDT (3/21)
Length of Visible Light 13h 30m
Length of Day
12h 16m
Waning Gibbous, 74% of the Moon is Illuminated
Mar 21
Waning Gibbous
Mar 23
Last Quarter
Mar 30
New
Apr 7
First Quarter
Apr 14
Full

Hourly Weather History & Observations

Time (AKDT) Temp. Windchill Dew Point Humidity Pressure Visibility Wind Dir Wind Speed Gust Speed Precip Events Conditions
12:53 AM 34.0 °F - 33.1 °F 96% 30.38 in 10.0 mi Calm Calm - N/A   Overcast
1:19 AM 33.8 °F - 32.0 °F 93% 30.38 in 10.0 mi Calm Calm - N/A   Mostly Cloudy
1:53 AM 34.0 °F 31.0 °F 32.0 °F 92% 30.38 in 10.0 mi SE 3.5 mph - N/A   Mostly Cloudy
2:53 AM 34.0 °F 31.0 °F 32.0 °F 92% 30.38 in 10.0 mi SE 3.5 mph - N/A   Overcast
3:13 AM 33.8 °F - 33.8 °F 100% 30.37 in 10.0 mi Calm Calm - N/A   Overcast
3:41 AM 33.8 °F - 33.8 °F 100% 30.37 in 10.0 mi Calm Calm - N/A   Overcast
3:53 AM 34.0 °F - 33.1 °F 96% 30.38 in 10.0 mi Calm Calm - N/A   Overcast
4:00 AM 33.8 °F - 33.8 °F 100% 30.37 in 10.0 mi Calm Calm - N/A   Overcast
4:28 AM 33.8 °F 30.8 °F 33.8 °F 100% 30.37 in 10.0 mi South 3.5 mph - 0.00 in   Overcast
4:43 AM 35.6 °F - 33.8 °F 93% 30.37 in 10.0 mi Calm Calm - 0.00 in Rain Light Rain
4:53 AM 35.1 °F 32.2 °F 33.1 °F 92% 30.37 in 10.0 mi SSE 3.5 mph - 0.00 in Rain Light Rain
5:03 AM 35.6 °F 31.7 °F 33.8 °F 93% 30.37 in 8.0 mi South 4.6 mph - 0.00 in Rain Light Rain
5:15 AM 35.6 °F - 33.8 °F 93% 30.36 in 10.0 mi Calm Calm - 0.00 in   Overcast
5:26 AM 33.8 °F 30.8 °F 33.8 °F 100% 30.36 in 10.0 mi South 3.5 mph - 0.00 in Rain Light Rain
5:53 AM 34.0 °F - 33.1 °F 96% 30.36 in 10.0 mi Calm Calm - 0.00 in   Overcast
5:58 AM 33.8 °F - 33.8 °F 100% 30.36 in 10.0 mi Calm Calm - 0.01 in   Overcast
6:09 AM 35.6 °F 32.8 °F 33.8 °F 93% 30.35 in 10.0 mi ESE 3.5 mph - 0.01 in   Overcast
6:53 AM 35.1 °F 32.2 °F 33.1 °F 92% 30.36 in 10.0 mi SSE 3.5 mph - 0.01 in   Overcast
7:53 AM 36.0 °F - 33.1 °F 89% 30.36 in 10.0 mi Calm Calm - N/A   Overcast
8:53 AM 37.9 °F 32.7 °F 32.0 °F 79% 30.34 in 10.0 mi South 6.9 mph - N/A   Mostly Cloudy
9:53 AM 39.9 °F 32.5 °F 30.9 °F 70% 30.33 in 10.0 mi SE 12.7 mph - N/A   Mostly Cloudy
10:53 AM 41.0 °F 32.5 °F 30.0 °F 65% 30.32 in 10.0 mi SE 17.3 mph - N/A   Overcast
11:53 AM 42.1 °F 33.9 °F 28.9 °F 60% 30.31 in 10.0 mi ESE 17.3 mph - N/A   Overcast
12:53 PM 41.0 °F 32.8 °F 30.0 °F 65% 30.30 in 10.0 mi SE 16.1 mph - N/A   Overcast
1:53 PM 42.1 °F 33.9 °F 28.9 °F 60% 30.27 in 10.0 mi SE 17.3 mph 21.9 mph N/A   Overcast
2:53 PM 43.0 °F 35.7 °F 28.9 °F 58% 30.25 in 10.0 mi SE 15.0 mph - N/A   Mostly Cloudy
3:53 PM 42.1 °F 35.2 °F 28.0 °F 58% 30.24 in 10.0 mi SE 12.7 mph - N/A   Overcast
4:53 PM 42.1 °F 33.6 °F 26.1 °F 53% 30.21 in 10.0 mi SSE 18.4 mph 23.0 mph N/A   Overcast
5:53 PM 42.1 °F 36.6 °F 25.0 °F 51% 30.19 in 10.0 mi ESE 9.2 mph - N/A   Overcast
6:53 PM 42.1 °F 34.5 °F 25.0 °F 51% 30.17 in 10.0 mi SE 15.0 mph 21.9 mph N/A   Overcast
7:53 PM 41.0 °F 33.1 °F 26.1 °F 55% 30.16 in 10.0 mi SSE 15.0 mph 26.5 mph N/A   Overcast
8:53 PM 39.9 °F 31.4 °F 28.0 °F 63% 30.16 in 10.0 mi SE 16.1 mph 21.9 mph N/A   Overcast
9:53 PM 36.0 °F 29.6 °F 33.1 °F 89% 30.16 in 10.0 mi South 8.1 mph 16.1 mph 0.00 in   Overcast
10:14 PM 35.6 °F 30.7 °F 33.8 °F 93% 30.15 in 10.0 mi South 5.8 mph 16.1 mph 0.00 in Rain Light Rain
10:53 PM 36.0 °F 29.6 °F 33.1 °F 89% 30.15 in 10.0 mi South 8.1 mph - 0.01 in Rain Light Rain
11:53 PM 35.1 °F 29.3 °F 33.1 °F 92% 30.14 in 10.0 mi South 6.9 mph - 0.00 in Rain Light Rain